Previsão horária em Aller

Hoje, 28 Janeiro, Quinta-feira

Tempo Temperatura Precipitação Vento Pressão Humidade
00:00 +6°C° 0 mm 2 m/s 676 mmHg 83%
01:00 +6°C° 0 mm 2 m/s 676 mmHg 83%
02:00 +6°C° 0 mm 2 m/s 675 mmHg 84%
03:00 +6°C° 0 mm 2 m/s 675 mmHg 84%
04:00 +6°C° 0 mm 2 m/s 675 mmHg 82%
05:00 +6°C° 0 mm 2 m/s 675 mmHg 81%
06:00 +6°C° 0 mm 2 m/s 675 mmHg 79%
07:00 +6°C° 0 mm 2 m/s 675 mmHg 79%
08:00 +6°C° 0 mm 2 m/s 675 mmHg 78%
09:00 +7°C° 0 mm 2 m/s 675 mmHg 78%
10:00 +8°C° 0 mm 2 m/s 675 mmHg 77%
11:00 +9°C° 0 mm 2 m/s 676 mmHg 76%
12:00 +12°C° 0 mm 2 m/s 676 mmHg 75%
13:00 +12°C° 0 mm 2 m/s 675 mmHg 76%
14:00 +12°C° 0 mm 2 m/s 675 mmHg 77%
15:00 +12°C° 0 mm 2 m/s 674 mmHg 79%
16:00 +10°C° 0 mm 2 m/s 674 mmHg 82%
17:00 +9°C° 0 mm 2 m/s 674 mmHg 85%
18:00 +8°C° 0 mm 2 m/s 674 mmHg 88%
19:00 +8°C° 0.1 mm 2 m/s 673 mmHg 90%
20:00 +8°C° 0.1 mm 2 m/s 673 mmHg 91%
21:00 +7°C° 0.1 mm 2 m/s 673 mmHg 93%
22:00 +7°C° 0 mm 2 m/s 673 mmHg 93%
23:00 +7°C° 0 mm 2 m/s 674 mmHg 92%

Amanhã, 29 Janeiro, Sexta-feira

Tempo Temperatura Precipitação Vento Pressão Humidade
00:00 +7°C° 0 mm 2 m/s 674 mmHg 92%
01:00 +7°C° 0 mm 2 m/s 674 mmHg 92%
02:00 +7°C° 0 mm 2 m/s 673 mmHg 92%
03:00 +7°C° 0 mm 2 m/s 673 mmHg 92%
04:00 +7°C° 0 mm 2 m/s 673 mmHg 92%
05:00 +7°C° 0 mm 2 m/s 673 mmHg 92%
06:00 +7°C° 0 mm 2 m/s 673 mmHg 92%
07:00 +7°C° 0 mm 2 m/s 674 mmHg 91%
08:00 +8°C° 0 mm 1 m/s 674 mmHg 90%
09:00 +9°C° 0 mm 1 m/s 674 mmHg 90%
10:00 +9°C° 0 mm 2 m/s 674 mmHg 85%
11:00 +10°C° 0 mm 2 m/s 674 mmHg 81%
12:00 +12°C° 0 mm 2 m/s 675 mmHg 77%
13:00 +12°C° 0 mm 2 m/s 674 mmHg 76%
14:00 +13°C° 0 mm 2 m/s 673 mmHg 74%
15:00 +13°C° 0 mm 2 m/s 672 mmHg 73%
16:00 +10°C° 0 mm 2 m/s 672 mmHg 77%
17:00 +9°C° 0 mm 2 m/s 671 mmHg 81%
18:00 +8°C° 0 mm 3 m/s 671 mmHg 85%
19:00 +8°C° 0 mm 3 m/s 670 mmHg 85%
20:00 +8°C° 0 mm 3 m/s 670 mmHg 85%
21:00 +7°C° 0 mm 4 m/s 670 mmHg 85%
22:00 +7°C° 0.1 mm 3 m/s 669 mmHg 85%
23:00 +7°C° 0.1 mm 3 m/s 668 mmHg 86%

Depois de amanhã, 30 Janeiro, Sábado

Tempo Temperatura Precipitação Vento Pressão Humidade
00:00 +7°C° 0.1 mm 3 m/s 668 mmHg 86%
01:00 +5°C° 1.4 mm 3 m/s 668 mmHg 88%
02:00 +6°C° 1.4 mm 2 m/s 667 mmHg 90%
03:00 +5°C° 1.4 mm 2 m/s 667 mmHg 92%
04:00 +4°C° 0.1 mm 3 m/s 667 mmHg 90%
05:00 +3°C° 0.1 mm 3 m/s 667 mmHg 88%
06:00 +2°C° 0.1 mm 3 m/s 666 mmHg 86%
07:00 +1°C° 0.2 mm 4 m/s 667 mmHg 87%
08:00 +1°C° 0.2 mm 4 m/s 667 mmHg 88%
09:00 +1°C° 0.2 mm 4 m/s 667 mmHg 88%
10:00 +1°C° 0.4 mm 5 m/s 667 mmHg 87%
11:00 +1°C° 0.4 mm 6 m/s 667 mmHg 85%
12:00 +2°C° 0.4 mm 7 m/s 668 mmHg 84%
13:00 +1°C° 0.5 mm 6 m/s 667 mmHg 86%
14:00 +1°C° 0.5 mm 6 m/s 667 mmHg 88%
15:00 +1°C° 0.5 mm 5 m/s 667 mmHg 90%
16:00 +1°C° 0.3 mm 5 m/s 667 mmHg 90%
17:00 0°C° 0.3 mm 5 m/s 667 mmHg 90%
18:00 0°C° 0.3 mm 4 m/s 668 mmHg 91%
19:00 0°C° 0.1 mm 4 m/s 668 mmHg 90%
20:00 0°C° 0.1 mm 4 m/s 668 mmHg 90%
21:00 +1°C° 0.1 mm 3 m/s 669 mmHg 90%
22:00 +1°C° 0.4 mm 3 m/s 669 mmHg 91%
23:00 +1°C° 0.4 mm 3 m/s 669 mmHg 92%

31 Janeiro, Domingo

Tempo Temperatura Precipitação Vento Pressão Humidade
00:00 +1°C° 0.4 mm 3 m/s 669 mmHg 93%
01:00 +2°C° 0.6 mm 3 m/s 669 mmHg 93%
02:00 +3°C° 0.6 mm 2 m/s 669 mmHg 93%
03:00 +4°C° 0.6 mm 2 m/s 668 mmHg 93%
04:00 +5°C° 0.3 mm 2 m/s 668 mmHg 93%
05:00 +5°C° 0.3 mm 2 m/s 668 mmHg 93%
06:00 +6°C° 0.3 mm 2 m/s 668 mmHg 93%
07:00 +6°C° 0 mm 2 m/s 668 mmHg 92%
08:00 +5°C° 0 mm 3 m/s 668 mmHg 90%
09:00 +7°C° 0 mm 3 m/s 668 mmHg 89%
10:00 +7°C° 0 mm 4 m/s 668 mmHg 86%
11:00 +8°C° 0 mm 5 m/s 668 mmHg 83%
12:00 +9°C° 0 mm 5 m/s 668 mmHg 81%
13:00 +9°C° 0 mm 6 m/s 668 mmHg 79%
14:00 +9°C° 0 mm 6 m/s 667 mmHg 77%
15:00 +9°C° 0 mm 7 m/s 667 mmHg 75%
16:00 +8°C° 0 mm 6 m/s 667 mmHg 78%
17:00 +6°C° 0 mm 5 m/s 667 mmHg 81%
18:00 +5°C° 0 mm 4 m/s 667 mmHg 83%
19:00 +5°C° 0 mm 4 m/s 667 mmHg 84%
20:00 +5°C° 0 mm 5 m/s 668 mmHg 84%
21:00 +5°C° 0 mm 5 m/s 668 mmHg 84%
22:00 +5°C° 0 mm 4 m/s 668 mmHg 84%
23:00 +4°C° 0 mm 4 m/s 669 mmHg 84%

1 Fevereiro, Segunda-feira

Tempo Temperatura Precipitação Vento Pressão Humidade
00:00 +4°C° 0 mm 3 m/s 669 mmHg 84%
01:00 +4°C° 0 mm 3 m/s 669 mmHg 83%
02:00 +3°C° 0 mm 3 m/s 669 mmHg 82%
03:00 +3°C° 0 mm 3 m/s 669 mmHg 82%
04:00 +3°C° 0 mm 3 m/s 669 mmHg 81%
05:00 +4°C° 0 mm 3 m/s 669 mmHg 81%
06:00 +4°C° 0 mm 3 m/s 670 mmHg 80%
07:00 +5°C° 0 mm 3 m/s 670 mmHg 81%
08:00 +6°C° 0 mm 2 m/s 671 mmHg 83%
09:00 +7°C° 0 mm 2 m/s 672 mmHg 84%
10:00 +8°C° 0 mm 2 m/s 672 mmHg 79%
11:00 +10°C° 0 mm 2 m/s 672 mmHg 74%
12:00 +12°C° 0 mm 2 m/s 673 mmHg 70%
13:00 +12°C° 0 mm 2 m/s 673 mmHg 70%
14:00 +12°C° 0 mm 1 m/s 673 mmHg 70%
15:00 +12°C° 0 mm 1 m/s 673 mmHg 70%
16:00 +11°C° 0.3 mm 1 m/s 672 mmHg 77%
17:00 +8°C° 0.3 mm 2 m/s 672 mmHg 83%
18:00 +7°C° 0.3 mm 2 m/s 672 mmHg 89%
19:00 +7°C° 0 mm 2 m/s 672 mmHg 89%
20:00 +7°C° 0 mm 2 m/s 672 mmHg 89%
21:00 +6°C° 0 mm 2 m/s 672 mmHg 89%
22:00 +5°C° 0 mm 3 m/s 672 mmHg 90%
23:00 +5°C° 0 mm 3 m/s 672 mmHg 90%

2 Fevereiro, Terça-feira

Tempo Temperatura Precipitação Vento Pressão Humidade
00:00 +5°C° 0 mm 3 m/s 672 mmHg 90%
01:00 +5°C° 0 mm 3 m/s 672 mmHg 89%
02:00 +5°C° 0 mm 3 m/s 671 mmHg 89%
03:00 +5°C° 0 mm 3 m/s 671 mmHg 89%
04:00 +5°C° 0 mm 3 m/s 671 mmHg 89%
05:00 +4°C° 0 mm 3 m/s 671 mmHg 88%
06:00 +4°C° 0 mm 3 m/s 671 mmHg 88%
07:00 +5°C° 0 mm 3 m/s 671 mmHg 87%
08:00 +5°C° 0 mm 3 m/s 671 mmHg 87%
09:00 +5°C° 0 mm 3 m/s 671 mmHg 86%
10:00 +7°C° 0 mm 3 m/s 671 mmHg 82%
11:00 +9°C° 0 mm 3 m/s 672 mmHg 77%
12:00 +10°C° 0 mm 3 m/s 672 mmHg 72%
13:00 +10°C° 0 mm 3 m/s 671 mmHg 72%
14:00 +10°C° 0 mm 4 m/s 671 mmHg 71%
15:00 +10°C° 0 mm 4 m/s 670 mmHg 71%
16:00 +8°C° 0 mm 4 m/s 670 mmHg 75%
17:00 +8°C° 0 mm 3 m/s 669 mmHg 80%
18:00 +5°C° 0 mm 3 m/s 669 mmHg 84%
19:00 +5°C° 0.1 mm 3 m/s 669 mmHg 84%
20:00 +5°C° 0.1 mm 3 m/s 668 mmHg 85%
21:00 +5°C° 0.1 mm 3 m/s 668 mmHg 85%
22:00 +5°C° 0.1 mm 3 m/s 668 mmHg 86%
23:00 +7°C° 0.1 mm 3 m/s 668 mmHg 86%
Mostrar mais

Necessitamos do seu Consentimento

A Meteoprog e os seus Fornecedores de Serviços podem armazenar e aceder a dados pessoais como cookies, identificadores do dispositivo ou outras tecnologias semelhantes existentes no seu dispositivo e processar estes dados para personalizar conteúdos e anúncios, assim como funcionalidades nas redes sociais e análise de tráfego.

  • Armazenar e/ou aceder a informações no seu dispositivo

    Os cookies, identificadores do dispositivo ou outras informações podem ser armazenados ou acedidos no seu dispositivo, para os fins acima indicados.

  • Anúncios e conteúdos personalizados, medição de anúncios e conteúdos, dados sobre o público-alvo e desenvolvimento de produtos

    Os anúncios e os conteúdos podem ser personalizados com base num perfil. Podem ser adicionados dados adicionais para uma maior personalização dos anúncios e dos conteúdos. A eficácia dos anúncios e dos conteúdos pode ser medida. Podem ser obtidas informações sobre o público que visualizou os anúncios e os conteúdos. Estes dados podem ser usados para desenvolver ou melhorar sistemas, softwares ou a experiência do utilizador.

Ao clicar em "Eu concordo”, permitirá o uso de cookies, identificadores do dispositivo e web beacons mencionados ou outras tecnologias semelhantes. As configurações do navegador do seu dispositivo podem ser alteradas.

Para certos fins, podem ser invocados interesses legítimos ao invés de consentimento. Pode ler mais informação sobre este assunto na nossa Política de Privacidade e Cookies.